AAL2791 KSEA-KCLT

Flight info

Callsign AAL2791
Flight time N/A
Altitude 35000
Route MONTN2 SEA NORMY MODDA STEVS FINUT BZN IKFOM CZI RODIE KEEFF KP66C STJ WELTS OWB OLSIE SKYWA FILPZ4
Aircraft A321/M-SDE3FGHIRWY/LB1

Departure

Time 2026-05-07 17:48
Airport Seattle–Tacoma International Airport (KSEA)

Arrival

Time N/A
Airport Charlotte Douglas International Airport (KCLT)
Time Latitude Longitude Altitude Speed Heading
2026-05-07 17:31 47.44634 -122.29866 404 ft 0 kts 227°
2026-05-07 17:35 47.44650 -122.29843 399 ft 4 kts 210°
2026-05-07 17:36 47.44674 -122.29830 403 ft 4 kts 181°
2026-05-07 17:36 47.44698 -122.29837 405 ft 4 kts 140°
2026-05-07 17:36 47.44715 -122.29861 406 ft 4 kts 133°
2026-05-07 17:36 47.44733 -122.29890 404 ft 4 kts 133°
2026-05-07 17:37 47.44752 -122.29919 402 ft 4 kts 134°
2026-05-07 17:37 47.44771 -122.29947 405 ft 4 kts 137°
2026-05-07 17:37 47.44791 -122.29973 408 ft 4 kts 148°
2026-05-07 17:37 47.44812 -122.29986 403 ft 1 kts 179°
2026-05-07 17:40 47.44807 -122.29986 408 ft 1 kts 180°
2026-05-07 17:40 47.44792 -122.29987 405 ft 3 kts 187°
2026-05-07 17:40 47.44766 -122.30001 408 ft 5 kts 202°
2026-05-07 17:41 47.44730 -122.30032 407 ft 7 kts 216°
2026-05-07 17:41 47.44693 -122.30091 405 ft 9 kts 236°
2026-05-07 17:41 47.44677 -122.30184 405 ft 10 kts 274°
2026-05-07 17:41 47.44708 -122.30281 406 ft 11 kts 308°
2026-05-07 17:42 47.44739 -122.30336 405 ft 10 kts 309°
2026-05-07 17:42 47.44773 -122.30396 405 ft 10 kts 309°
2026-05-07 17:42 47.44804 -122.30482 408 ft 10 kts 277°
2026-05-07 17:43 47.44809 -122.30595 406 ft 12 kts 290°
2026-05-07 17:43 47.44881 -122.30628 406 ft 11 kts 360°
2026-05-07 17:43 47.44950 -122.30628 410 ft 9 kts
2026-05-07 17:43 47.45019 -122.30627 412 ft 11 kts
2026-05-07 17:44 47.45098 -122.30626 415 ft 12 kts
2026-05-07 17:44 47.45188 -122.30625 410 ft 13 kts
2026-05-07 17:44 47.45283 -122.30625 416 ft 14 kts
2026-05-07 17:44 47.45378 -122.30624 420 ft 14 kts
2026-05-07 17:45 47.45477 -122.30623 425 ft 15 kts
2026-05-07 17:45 47.45584 -122.30622 424 ft 16 kts
2026-05-07 17:45 47.45700 -122.30621 428 ft 18 kts
2026-05-07 17:45 47.45835 -122.30620 438 ft 21 kts
2026-05-07 17:46 47.45988 -122.30619 434 ft 23 kts
2026-05-07 17:46 47.46156 -122.30617 437 ft 25 kts
2026-05-07 17:46 47.46329 -122.30616 433 ft 20 kts 357°
2026-05-07 17:46 47.46370 -122.30737 442 ft 12 kts 240°
2026-05-07 17:47 47.46289 -122.30778 433 ft 16 kts 180°
2026-05-07 17:47 47.46007 -122.30780 420 ft 75 kts 180°
2026-05-07 17:47 47.45269 -122.30787 419 ft 136 kts 180°
2026-05-07 17:47 47.44150 -122.30794 409 ft 181 kts 181°
2026-05-07 17:48 47.42895 -122.30803 1111 ft 177 kts 181°
2026-05-07 17:48 47.41674 -122.30817 1929 ft 174 kts 182°
2026-05-07 17:48 47.40449 -122.30851 2448 ft 182 kts 181°
2026-05-07 17:48 47.39128 -122.30882 2779 ft 198 kts 181°
2026-05-07 17:49 47.37703 -122.30918 3096 ft 213 kts 180°
2026-05-07 17:49 47.36153 -122.30954 3267 ft 234 kts 180°
2026-05-07 17:49 47.34451 -122.30730 3468 ft 255 kts 157°
2026-05-07 17:49 47.33055 -122.29129 3944 ft 261 kts 121°
2026-05-07 17:50 47.32560 -122.26598 4504 ft 262 kts 84°
2026-05-07 17:50 47.33161 -122.24113 5117 ft 261 kts 49°
2026-05-07 17:50 47.34609 -122.22537 5725 ft 263 kts 20°
2026-05-07 17:50 47.36326 -122.21516 6335 ft 270 kts 30°
2026-05-07 17:51 47.37616 -122.19491 6903 ft 279 kts 64°
2026-05-07 17:51 47.38136 -122.16720 7528 ft 284 kts 81°
2026-05-07 17:51 47.38297 -122.13800 8161 ft 286 kts 86°
2026-05-07 17:51 47.38392 -122.10893 8800 ft 289 kts 86°
2026-05-07 17:52 47.38541 -122.07923 9461 ft 291 kts 83°
2026-05-07 17:52 47.38774 -122.04948 10086 ft 294 kts 81°
2026-05-07 17:52 47.39090 -122.01892 10309 ft 310 kts 79°
2026-05-07 17:52 47.39479 -121.98668 10430 ft 328 kts 78°
2026-05-07 17:53 47.39918 -121.95276 10555 ft 345 kts 78°
2026-05-07 17:53 47.40389 -121.91720 10707 ft 360 kts 78°
2026-05-07 17:53 47.40876 -121.88056 11107 ft 366 kts 78°
2026-05-07 17:53 47.41365 -121.84341 11588 ft 370 kts 78°
2026-05-07 17:54 47.41857 -121.80590 12050 ft 374 kts 78°
2026-05-07 17:54 47.42350 -121.76814 12548 ft 377 kts 78°
2026-05-07 17:54 47.42821 -121.72995 13033 ft 380 kts 82°
2026-05-07 17:54 47.42929 -121.69076 13518 ft 384 kts 90°
2026-05-07 17:55 47.42862 -121.65113 13999 ft 387 kts 90°
2026-05-07 17:55 47.42792 -121.61123 14416 ft 391 kts 90°
2026-05-07 17:55 47.42723 -121.57097 14845 ft 393 kts 90°
2026-05-07 17:55 47.42633 -121.53050 15275 ft 396 kts 94°
2026-05-07 17:56 47.42178 -121.49037 15702 ft 399 kts 103°
2026-05-07 17:56 47.41468 -121.45049 16094 ft 403 kts 103°
2026-05-07 17:56 47.40754 -121.41035 16505 ft 406 kts 103°
2026-05-07 17:56 47.40037 -121.37001 16920 ft 408 kts 103°
2026-05-07 17:57 47.39315 -121.32934 17326 ft 410 kts 103°
2026-05-07 17:57 47.38834 -121.30233 17570 ft 412 kts 103°
2026-05-07 17:57 47.37852 -121.24747 18088 ft 415 kts 103°
2026-05-07 17:57 47.35906 -121.13922 18964 ft 421 kts 103°
2026-05-07 17:58 47.32849 -120.97064 20234 ft 431 kts 103°
2026-05-07 17:58 47.29689 -120.79789 21466 ft 442 kts 103°
2026-05-07 17:58 47.26439 -120.62147 22700 ft 451 kts 103°
2026-05-07 17:58 47.23405 -120.44076 23844 ft 458 kts 97°
2026-05-07 17:59 47.21224 -120.25402 24815 ft 467 kts 97°
2026-05-07 17:59 47.18689 -120.06435 25679 ft 477 kts 98°
2026-05-07 17:59 47.16087 -119.87174 26552 ft 485 kts 98°
2026-05-07 17:59 47.13438 -119.67575 27384 ft 493 kts 98°
2026-05-07 18:00 47.11633 -119.54434 27916 ft 498 kts 98°
2026-05-07 18:00 47.08848 -119.34370 28573 ft 504 kts 98°
2026-05-07 18:00 47.06020 -119.14240 29539 ft 504 kts 98°
2026-05-07 18:00 47.03137 -118.94095 30400 ft 504 kts 98°
2026-05-07 18:01 47.00233 -118.73987 31133 ft 505 kts 98°
2026-05-07 18:01 46.97281 -118.53851 31881 ft 506 kts 98°
2026-05-07 18:01 46.94305 -118.33719 32582 ft 507 kts 98°
2026-05-07 18:01 46.91268 -118.13578 33219 ft 508 kts 98°
2026-05-07 18:02 46.85066 -117.73080 34365 ft 513 kts 98°
2026-05-07 18:02 46.82200 -117.54736 34875 ft 512 kts 99°
2026-05-07 18:02 46.80614 -117.44671 35068 ft 513 kts 98°
2026-05-07 18:03 46.79003 -117.34513 35073 ft 514 kts 99°
2026-05-07 18:03 46.75766 -117.14210 35107 ft 514 kts 99°
2026-05-07 18:04 46.72784 -116.93849 35137 ft 512 kts 96°
2026-05-07 18:04 46.70128 -116.73484 35047 ft 513 kts 96°
2026-05-07 18:05 46.67270 -116.53119 35012 ft 513 kts 97°
2026-05-07 18:05 46.64413 -116.32753 35052 ft 513 kts 97°
2026-05-07 18:06 46.59581 -115.99020 35007 ft 513 kts 97°
2026-05-07 18:06 46.53675 -115.58628 34989 ft 509 kts 98°
2026-05-07 18:07 46.47608 -115.18299 35045 ft 512 kts 98°
2026-05-07 18:07 46.41371 -114.77926 35003 ft 512 kts 99°
2026-05-07 18:08 46.35052 -114.37807 34992 ft 512 kts 99°
2026-05-07 18:08 46.28578 -113.97894 35054 ft 515 kts 99°
2026-05-07 18:09 46.21912 -113.57791 34964 ft 510 kts 100°
2026-05-07 18:09 46.15165 -113.17933 34982 ft 513 kts 101°
2026-05-07 18:10 46.08201 -112.77892 35003 ft 515 kts 101°
2026-05-07 18:10 46.01128 -112.38011 35080 ft 513 kts 101°
2026-05-07 18:11 45.93921 -111.98292 34932 ft 514 kts 101°
2026-05-07 18:11 45.86569 -111.58700 34942 ft 513 kts 102°
2026-05-07 18:12 45.79084 -111.19211 35011 ft 512 kts 102°
2026-05-07 18:12 45.67647 -110.81662 34969 ft 516 kts 112°
2026-05-07 18:13 45.55636 -110.44384 34993 ft 517 kts 112°
2026-05-07 18:13 45.43558 -110.07327 34985 ft 513 kts 112°
2026-05-07 18:14 45.31385 -109.70550 35002 ft 515 kts 112°
2026-05-07 18:14 45.19055 -109.33865 34983 ft 515 kts 112°
2026-05-07 18:15 45.06650 -108.97362 34996 ft 515 kts 113°
2026-05-07 18:15 44.94093 -108.60996 35022 ft 515 kts 113°
2026-05-07 18:16 44.79744 -108.25864 35022 ft 518 kts 118°
2026-05-07 18:16 44.65074 -107.91300 35043 ft 518 kts 118°